Location: Unspecified
(0.0000°N, 0.0000°E)
Time: 18:14:11
(UTC+00:00)

XW-2D - Visible Passes

Search period start: 24 April 2018 00:00
Search period end: 04 May 2018 00:00
Orbit: 511 x 529 km, 97.5° (Epoch: 24 April)

Date Brightness Start Highest point End Pass type
(mag) Time Alt. Az. Time Alt. Az. Time Alt. Az.
24 Apr ? 05:15:16 10° NE 05:18:35 31° E 05:21:55 10° SSE visible
25 Apr ? 05:02:26 10° NE 05:05:10 19° ESE 05:07:53 10° SSE visible
25 Apr ? 18:30:04 10° SW 18:32:21 15° WSW 18:34:37 10° WNW visible
26 Apr ? 04:50:15 10° ENE 04:51:44 12° ESE 04:53:12 10° SE visible
30 Apr ? 05:28:14 10° NNE 05:31:52 53° ESE 05:35:30 10° S visible
01 May ? 05:15:06 10° NE 05:18:25 31° ESE 05:21:45 10° SSE visible
02 May ? 05:02:16 10° NE 05:04:59 19° ESE 05:07:42 10° SSE visible
02 May ? 18:29:54 10° SW 18:32:11 15° WSW 18:34:28 10° WNW visible
03 May ? 04:50:06 10° ENE 04:51:33 12° ESE 04:53:00 10° SE visible
